Starlink 30767

operational
NORAD ID: 58126 Int'l Des: 2023-162 Owner: SPXS Country: US Constellation: starlink
LEOCIRCULAR

Starlink 30767について

説明を読み込み中...

リアルタイム位置

3D地球を読み込み中...

次回通過

高度履歴

Altitude vs Time

uPlot chart will show altitude changes over time

軌道要素

1 58126U 23162J 25306.46646757 .00000662 00000-0 64076-4 0 9998
2 58126 43.0051 104.2732 0001429 268.9954 91.0725 15.02534045113160
Epoch: Nov 2, 2025 • Age: 11 hours

現在のステータス

高度 567.6 km
速度 7.58 km/s
衛星直下点 -33.32°S, 43.07°W
打ち上げ日 Oct 22, 2023
運用期間 2 years
タイプ internet

技術仕様

分類 Payload
質量 730.00 kg
乾燥質量 700.00 kg
総質量 730.00 kg
長さ 0.30 m
直径 4.10 m
スパン 29.00 m
形状 Box + pan
製造者 SPXS
バスタイプ Starlink V2M
フェーズステータス In Orbit
所有者/国 SPXS/US

大規模コンステレーション

Loading constellations...